| time (UTC) | temp F | wind direction | speed knots | gust knots | rain 1hr in | rain 24hr in | rain mn in | humidity % | barometer mb |
| 20260506122958 | 64 | 357 | 0.0 | 0.0 | 0.00 | 0.00 | 0.00 | 84 | 1006.9 |
| 20260506122455 | 64 | 201 | 0.9 | 0.9 | 0.00 | 0.00 | 0.00 | 84 | 1006.7 |
| 20260506121953 | 64 | 9 | 0.0 | 0.0 | 0.00 | 0.00 | 0.00 | 84 | 1006.7 |
| 20260506121450 | 64 | 45 | 0.0 | 0.0 | 0.00 | 0.00 | 0.00 | 84 | 1007.0 |
| 20260506120946 | 63 | 198 | 1.7 | 1.7 | 0.00 | 0.00 | 0.00 | 84 | 1007.0 |
| 20260506120444 | 63 | 357 | 0.0 | 0.0 | 0.00 | 0.00 | 0.00 | 84 | 1007.2 |
| 20260506115941 | 63 | 330 | 0.0 | 0.0 | 0.00 | 0.00 | 0.00 | 84 | 1007.2 |
| 20260506115439 | 64 | 163 | 0.0 | 0.0 | 0.00 | 0.00 | 0.00 | 84 | 1007.1 |
| 20260506114937 | 64 | 86 | 0.0 | 0.0 | 0.00 | 0.00 | 0.00 | 84 | 1007.0 |
| 20260506114434 | 64 | 226 | 0.0 | 0.0 | 0.00 | 0.00 | 0.00 | 84 | 1007.0 |
| 20260506113933 | 63 | 110 | 0.0 | 0.0 | 0.00 | 0.00 | 0.00 | 84 | 1007.1 |
| 20260506113430 | 63 | 301 | 0.0 | 0.0 | 0.00 | 0.00 | 0.00 | 84 | 1007.0 |
| 20260506112926 | 63 | 158 | 0.0 | 0.0 | 0.00 | 0.00 | 0.00 | 84 | 1006.5 |
| 20260506112424 | 63 | 332 | 0.0 | 0.0 | 0.00 | 0.00 | 0.00 | 85 | 1006.7 |
| 20260506111916 | 63 | 267 | 0.0 | 0.0 | 0.00 | 0.00 | 0.00 | 84 | 1006.8 |
| 20260506111414 | 63 | 214 | 0.0 | 0.0 | 0.00 | 0.00 | 0.00 | 84 | 1007.0 |
| 20260506110910 | 63 | 321 | 0.0 | 0.0 | 0.00 | 0.00 | 0.00 | 84 | 1006.8 |
| 20260506110408 | 63 | 248 | 0.0 | 0.0 | 0.00 | 0.00 | 0.00 | 85 | 1006.8 |
| 20260506105904 | 63 | 74 | 0.0 | 0.0 | 0.00 | 0.00 | 0.00 | 85 | 1007.0 |
| 20260506105401 | 62 | 193 | 0.0 | 0.0 | 0.00 | 0.00 | 0.00 | 85 | 1007.1 |
| 20260506104858 | 62 | 322 | 0.0 | 0.0 | 0.00 | 0.00 | 0.00 | 85 | 1007.0 |
| 20260506104356 | 62 | 206 | 0.0 | 0.0 | 0.00 | 0.00 | 0.00 | 85 | 1007.0 |
| 20260506103853 | 62 | 359 | 0.0 | 0.0 | 0.00 | 0.00 | 0.00 | 85 | 1007.0 |
| 20260506103351 | 62 | 77 | 0.0 | 0.0 | 0.00 | 0.00 | 0.00 | 85 | 1006.8 |
| 20260506102848 | 62 | 109 | 0.0 | 0.0 | 0.00 | 0.00 | 0.00 | 85 | 1006.7 |
| 20260506102346 | 62 | 74 | 0.9 | 1.7 | 0.00 | 0.00 | 0.00 | 84 | 1006.7 |
| 20260506101843 | 62 | 83 | 0.9 | 0.9 | 0.00 | 0.00 | 0.00 | 84 | 1006.7 |
| 20260506101339 | 62 | 194 | 1.7 | 2.6 | 0.00 | 0.00 | 0.00 | 83 | 1006.7 |
| 20260506100836 | 62 | 98 | 0.9 | 1.7 | 0.00 | 0.00 | 0.00 | 84 | 1006.5 |
| 20260506100335 | 62 | 217 | 0.9 | 0.9 | 0.00 | 0.00 | 0.00 | 83 | 1006.6 |
| 20260506095833 | 63 | 206 | 0.9 | 0.9 | 0.00 | 0.00 | 0.00 | 83 | 1006.5 |
| 20260506095330 | 63 | 247 | 1.7 | 1.7 | 0.00 | 0.00 | 0.00 | 82 | 1006.8 |
| 20260506094826 | 63 | 210 | 2.6 | 2.6 | 0.00 | 0.00 | 0.00 | 82 | 1006.6 |
| 20260506094325 | 63 | 219 | 1.7 | 1.7 | 0.00 | 0.00 | 0.00 | 82 | 1006.7 |
| 20260506093823 | 63 | 87 | 0.9 | 1.7 | 0.00 | 0.00 | 0.00 | 81 | 1006.5 |
| 20260506093320 | 64 | 184 | 2.6 | 2.6 | 0.00 | 0.00 | 0.00 | 81 | 1006.6 |
| 20260506092818 | 64 | 328 | 0.0 | 0.0 | 0.00 | 0.00 | 0.00 | 81 | 1006.5 |
| 20260506092315 | 64 | 203 | 1.7 | 1.7 | 0.00 | 0.00 | 0.00 | 80 | 1006.5 |
| 20260506091812 | 63 | 218 | 0.9 | 0.9 | 0.00 | 0.00 | 0.00 | 81 | 1006.4 |
| 20260506091310 | 63 | 199 | 1.7 | 2.6 | 0.00 | 0.00 | 0.00 | 80 | 1006.3 |
| 20260506090807 | 64 | 86 | 0.0 | 0.9 | 0.00 | 0.00 | 0.00 | 80 | 1006.5 |
| 20260506090304 | 64 | 191 | 0.0 | 0.9 | 0.00 | 0.00 | 0.00 | 79 | 1006.6 |
| 20260506085801 | 64 | 316 | 0.0 | 0.0 | 0.00 | 0.00 | 0.00 | 79 | 1006.4 |
| 20260506085257 | 64 | 225 | 0.0 | 0.9 | 0.00 | 0.00 | 0.00 | 78 | 1006.5 |
| 20260506084754 | 64 | 152 | 0.0 | 0.9 | 0.00 | 0.00 | 0.00 | 78 | 1006.9 |
| 20260506084250 | 64 | 327 | 0.0 | 0.0 | 0.00 | 0.00 | 0.00 | 77 | 1006.8 |
| 20260506083747 | 64 | 355 | 0.0 | 0.9 | 0.00 | 0.00 | 0.00 | 77 | 1006.6 |
| 20260506083245 | 64 | 19 | 0.0 | 0.9 | 0.00 | 0.00 | 0.00 | 77 | 1006.8 |
| 20260506082742 | 64 | 205 | 2.6 | 2.6 | 0.00 | 0.00 | 0.00 | 76 | 1006.9 |
| 20260506082237 | 65 | 266 | 0.0 | 0.0 | 0.00 | 0.00 | 0.00 | 75 | 1006.8 |
| 20260506081736 | 65 | 83 | 0.9 | 1.7 | 0.00 | 0.00 | 0.00 | 75 | 1006.8 |
| 20260506081233 | 65 | 79 | 0.0 | 0.0 | 0.00 | 0.00 | 0.00 | 75 | 1006.7 |
| 20260506080731 | 65 | 191 | 2.6 | 2.6 | 0.00 | 0.00 | 0.00 | 75 | 1006.8 |
| 20260506080227 | 65 | 94 | 0.0 | 0.9 | 0.00 | 0.00 | 0.00 | 74 | 1006.6 |
| 20260506073211 | 66 | 163 | 0.9 | 0.9 | 0.00 | 0.00 | 0.00 | 72 | 1006.6 |
| 20260506072708 | 66 | 138 | 0.0 | 0.9 | 0.00 | 0.00 | 0.00 | 71 | 1006.5 |
| 20260506072206 | 66 | 152 | 0.0 | 0.0 | 0.00 | 0.00 | 0.00 | 71 | 1006.6 |
| 20260506071703 | 66 | 336 | 0.0 | 0.0 | 0.00 | 0.00 | 0.00 | 72 | 1006.8 |
| 20260506071201 | 66 | 93 | 0.0 | 0.0 | 0.00 | 0.00 | 0.00 | 71 | 1006.8 |
| 20260506070657 | 66 | 119 | 0.0 | 0.0 | 0.00 | 0.00 | 0.00 | 71 | 1006.7 |
| 20260506070154 | 66 | 3 | 0.0 | 0.0 | 0.00 | 0.00 | 0.00 | 71 | 1006.9 |
| 20260506062131 | 66 | 312 | 0.0 | 0.0 | 0.00 | 0.00 | 0.00 | 69 | 1007.0 |
| 20260506061627 | 67 | 330 | 0.0 | 0.0 | 0.00 | 0.00 | 0.00 | 69 | 1007.0 |
| 20260506061125 | 67 | 355 | 0.0 | 0.0 | 0.00 | 0.00 | 0.00 | 68 | 1007.0 |
| 20260506060623 | 67 | 19 | 0.9 | 0.9 | 0.00 | 0.00 | 0.00 | 68 | 1007.0 |
| 20260506060120 | 67 | 211 | 0.0 | 0.0 | 0.00 | 0.00 | 0.00 | 68 | 1006.9 |
| 20260506051052 | 68 | 171 | 0.9 | 1.7 | 0.00 | 0.00 | 0.00 | 66 | 1007.5 |
| 20260506050550 | 68 | 193 | 0.0 | 0.0 | 0.00 | 0.00 | 0.00 | 66 | 1007.2 |
| 20260506045040 | 68 | 13 | 0.0 | 0.0 | 0.00 | 0.00 | 0.00 | 65 | 1007.6 |
| 20260506044538 | 68 | 165 | 0.9 | 1.7 | 0.00 | 0.00 | 0.00 | 65 | 1007.6 |
| 20260506044035 | 68 | 166 | 2.6 | 2.6 | 0.00 | 0.00 | 0.00 | 65 | 1007.6 |
| 20260506043532 | 68 | 219 | 0.0 | 0.9 | 0.00 | 0.00 | 0.00 | 66 | 1007.3 |
| 20260506043030 | 68 | 149 | 0.9 | 0.9 | 0.00 | 0.00 | 0.00 | 65 | 1007.6 |
| 20260506042529 | 68 | 299 | 0.0 | 0.0 | 0.00 | 0.00 | 0.00 | 65 | 1007.6 |
| 20260506042027 | 68 | 248 | 0.0 | 0.0 | 0.00 | 0.00 | 0.00 | 64 | 1007.5 |
| 20260506041525 | 68 | 194 | 0.0 | 0.0 | 0.00 | 0.00 | 0.00 | 64 | 1007.3 |
| 20260506041021 | 69 | 185 | 0.0 | 0.9 | 0.00 | 0.00 | 0.00 | 63 | 1007.5 |
| 20260506040519 | 68 | 24 | 0.9 | 0.9 | 0.00 | 0.00 | 0.00 | 64 | 1007.3 |
| 20260506040015 | 68 | 193 | 0.0 | 0.0 | 0.00 | 0.00 | 0.00 | 64 | 1007.2 |
| 20260506035512 | 68 | 17 | 0.0 | 0.9 | 0.00 | 0.00 | 0.00 | 65 | 1007.5 |
| 20260506035009 | 67 | 68 | 0.0 | 0.0 | 0.00 | 0.00 | 0.00 | 65 | 1007.3 |
| 20260506034506 | 67 | 326 | 0.0 | 0.0 | 0.00 | 0.00 | 0.00 | 65 | 1007.3 |
| 20260506034003 | 67 | 303 | 0.0 | 0.0 | 0.00 | 0.00 | 0.00 | 65 | 1007.3 |
| 20260506033500 | 67 | 9 | 0.0 | 0.0 | 0.00 | 0.00 | 0.00 | 65 | 1007.5 |
| 20260506032957 | 67 | 160 | 0.0 | 0.0 | 0.00 | 0.00 | 0.00 | 65 | 1007.3 |
| 20260506032455 | 68 | 343 | 0.0 | 0.0 | 0.00 | 0.00 | 0.00 | 64 | 1007.3 |
| 20260506031951 | 68 | 182 | 0.0 | 0.0 | 0.00 | 0.00 | 0.00 | 63 | 1007.0 |
| 20260506031449 | 68 | 17 | 0.0 | 0.9 | 0.00 | 0.00 | 0.00 | 62 | 1007.2 |
| 20260506030946 | 68 | 210 | 0.9 | 0.9 | 0.00 | 0.00 | 0.00 | 61 | 1007.5 |
| 20260506030444 | 69 | 99 | 1.7 | 2.6 | 0.00 | 0.00 | 0.00 | 62 | 1007.5 |
| 20260506025940 | 69 | 157 | 2.6 | 2.6 | 0.00 | 0.00 | 0.00 | 60 | 1007.5 |
| 20260506025437 | 69 | 266 | 0.0 | 0.0 | 0.00 | 0.00 | 0.00 | 60 | 1007.2 |
| 20260506024934 | 70 | 175 | 1.7 | 1.7 | 0.00 | 0.00 | 0.00 | 58 | 1007.2 |
| 20260506024431 | 70 | 338 | 0.9 | 0.9 | 0.00 | 0.00 | 0.00 | 57 | 1006.9 |
| 20260506023926 | 71 | 123 | 0.9 | 0.9 | 0.00 | 0.00 | 0.00 | 55 | 1007.2 |
| 20260506023424 | 71 | 75 | 0.0 | 0.0 | 0.00 | 0.00 | 0.00 | 55 | 1006.9 |
| 20260506022920 | 72 | 87 | 0.0 | 0.0 | 0.00 | 0.00 | 0.00 | 52 | 1007.0 |
| 20260506022418 | 72 | 57 | 0.0 | 0.0 | 0.00 | 0.00 | 0.00 | 51 | 1006.9 |
| 20260506021916 | 72 | 190 | 0.0 | 0.0 | 0.00 | 0.00 | 0.00 | 51 | 1006.9 |
| 20260506021413 | 72 | 149 | 0.0 | 0.9 | 0.00 | 0.00 | 0.00 | 50 | 1006.9 |
| 20260506020909 | 73 | 168 | 0.9 | 1.7 | 0.00 | 0.00 | 0.00 | 48 | 1006.7 |
| 20260506020408 | 73 | 6 | 0.0 | 0.0 | 0.00 | 0.00 | 0.00 | 49 | 1006.8 |
| 20260506015904 | 73 | 207 | 0.9 | 0.9 | 0.00 | 0.00 | 0.00 | 47 | 1006.8 |
| 20260506015402 | 74 | 322 | 0.0 | 0.0 | 0.00 | 0.00 | 0.00 | 45 | 1006.7 |
| 20260506014859 | 74 | 6 | 0.0 | 0.0 | 0.00 | 0.00 | 0.00 | 45 | 1006.6 |
| 20260506014355 | 75 | 282 | 0.9 | 0.9 | 0.00 | 0.00 | 0.00 | 42 | 1006.6 |
| 20260506013852 | 75 | 122 | 0.0 | 0.9 | 0.00 | 0.00 | 0.00 | 44 | 1006.7 |
| 20260506013350 | 75 | 257 | 0.0 | 0.0 | 0.00 | 0.00 | 0.00 | 43 | 1006.5 |
| 20260506012846 | 75 | 310 | 0.0 | 0.0 | 0.00 | 0.00 | 0.00 | 43 | 1006.3 |
| 20260506012343 | 75 | 242 | 0.9 | 0.9 | 0.00 | 0.00 | 0.00 | 42 | 1006.4 |
| 20260506011840 | 75 | 286 | 0.0 | 0.0 | 0.00 | 0.00 | 0.00 | 42 | 1006.5 |
| 20260506011337 | 75 | 222 | 0.9 | 0.9 | 0.00 | 0.00 | 0.00 | 43 | 1006.5 |
| 20260506010834 | 75 | 259 | 0.0 | 0.0 | 0.00 | 0.00 | 0.00 | 43 | 1006.2 |
| 20260506010332 | 75 | 107 | 0.0 | 0.0 | 0.00 | 0.00 | 0.00 | 41 | 1006.1 |
| 20260506005829 | 75 | 193 | 0.0 | 0.0 | 0.00 | 0.00 | 0.00 | 41 | 1006.2 |
| 20260506005326 | 76 | 193 | 0.9 | 0.9 | 0.00 | 0.00 | 0.00 | 42 | 1006.2 |
| 20260506004822 | 76 | 224 | 1.7 | 4.3 | 0.00 | 0.00 | 0.00 | 40 | 1006.2 |
| 20260506004319 | 77 | 289 | 0.0 | 0.0 | 0.00 | 0.00 | 0.00 | 40 | 1006.2 |
| 20260506003815 | 77 | 282 | 0.9 | 0.9 | 0.00 | 0.00 | 0.00 | 39 | 1006.1 |
| 20260506003312 | 77 | 284 | 0.9 | 0.9 | 0.00 | 0.00 | 0.00 | 38 | 1005.9 |
| 20260506002808 | 77 | 253 | 0.0 | 0.0 | 0.00 | 0.00 | 0.00 | 39 | 1005.9 |
| 20260506002306 | 77 | 267 | 0.9 | 0.9 | 0.00 | 0.00 | 0.00 | 39 | 1006.0 |
| 20260506001800 | 77 | 213 | 1.7 | 4.3 | 0.00 | 0.00 | 0.00 | 39 | 1005.9 |
| 20260506001258 | 77 | 215 | 0.9 | 1.7 | 0.00 | 0.00 | 0.00 | 38 | 1006.0 |
| 20260506000754 | 77 | 309 | 1.7 | 1.7 | 0.00 | 0.00 | 0.00 | 38 | 1005.8 |
| 20260506000254 | 78 | 219 | 0.9 | 1.7 | 0.00 | 0.00 | 0.00 | 38 | 1005.8 |
| 20260505235749 | 78 | 221 | 0.9 | 1.7 | 0.00 | 0.00 | 0.00 | 38 | 1005.7 |
| 20260505235247 | 77 | 217 | 0.9 | 0.9 | 0.00 | 0.00 | 0.00 | 38 | 1005.7 |
| 20260505234743 | 78 | 257 | 1.7 | 2.6 | 0.00 | 0.00 | 0.00 | 37 | 1005.4 |
| 20260505234241 | 78 | 266 | 0.0 | 0.0 | 0.00 | 0.00 | 0.00 | 37 | 1005.4 |
| 20260505233737 | 78 | 180 | 0.0 | 0.9 | 0.00 | 0.00 | 0.00 | 37 | 1005.3 |
| 20260505233236 | 78 | 162 | 0.9 | 1.7 | 0.00 | 0.00 | 0.00 | 37 | 1005.3 |
| 20260505232732 | 78 | 192 | 2.6 | 2.6 | 0.00 | 0.00 | 0.00 | 36 | 1005.1 |
| 20260505232230 | 78 | 247 | 0.9 | 1.7 | 0.00 | 0.00 | 0.00 | 37 | 1005.1 |
| 20260505231726 | 78 | 246 | 1.7 | 2.6 | 0.00 | 0.00 | 0.00 | 36 | 1005.1 |
| 20260505231225 | 79 | 212 | 0.0 | 0.0 | 0.00 | 0.00 | 0.00 | 37 | 1005.1 |
| 20260505230723 | 79 | 229 | 0.0 | 0.0 | 0.00 | 0.00 | 0.00 | 36 | 1005.1 |
| 20260505230219 | 79 | 204 | 1.7 | 1.7 | 0.00 | 0.00 | 0.00 | 36 | 1005.2 |
| 20260505225716 | 79 | 237 | 0.9 | 1.7 | 0.00 | 0.00 | 0.00 | 36 | 1004.9 |
| 20260505225213 | 79 | 274 | 0.0 | 0.9 | 0.00 | 0.00 | 0.00 | 37 | 1004.8 |
| 20260505224708 | 79 | 263 | 0.9 | 1.7 | 0.00 | 0.00 | 0.00 | 38 | 1004.6 |
| 20260505224206 | 80 | 264 | 0.9 | 0.9 | 0.00 | 0.00 | 0.00 | 37 | 1004.7 |
| 20260505223704 | 80 | 0 | 0.9 | 1.7 | 0.00 | 0.00 | 0.00 | 37 | 1004.5 |
| 20260505223159 | 80 | 191 | 0.9 | 1.7 | 0.00 | 0.00 | 0.00 | 37 | 1004.6 |
| 20260505222656 | 80 | 243 | 0.9 | 1.7 | 0.00 | 0.00 | 0.00 | 37 | 1004.4 |
| 20260505222152 | 80 | 213 | 0.9 | 1.7 | 0.00 | 0.00 | 0.00 | 37 | 1004.5 |
| 20260505221649 | 81 | 229 | 1.7 | 1.7 | 0.00 | 0.00 | 0.00 | 36 | 1004.5 |
| 20260505221146 | 81 | 165 | 0.9 | 0.9 | 0.00 | 0.00 | 0.00 | 36 | 1004.2 |
| 20260505220643 | 81 | 199 | 2.6 | 2.6 | 0.00 | 0.00 | 0.00 | 36 | 1004.1 |
| 20260505220141 | 81 | 287 | 2.6 | 2.6 | 0.00 | 0.00 | 0.00 | 36 | 1004.3 |
| 20260505215638 | 81 | 307 | 2.6 | 2.6 | 0.00 | 0.00 | 0.00 | 35 | 1004.2 |
| 20260505215136 | 82 | 203 | 0.9 | 1.7 | 0.00 | 0.00 | 0.00 | 36 | 1004.2 |
| 20260505214634 | 81 | 300 | 1.7 | 1.7 | 0.00 | 0.00 | 0.00 | 35 | 1004.2 |
| 20260505214130 | 81 | 269 | 4.3 | 7.0 | 0.00 | 0.00 | 0.00 | 36 | 1004.2 |
| 20260505213628 | 81 | 260 | 1.7 | 1.7 | 0.00 | 0.00 | 0.00 | 37 | 1004.4 |
| 20260505213125 | 81 | 300 | 2.6 | 4.3 | 0.00 | 0.00 | 0.00 | 36 | 1004.1 |
| 20260505212620 | 81 | 19 | 1.7 | 2.6 | 0.00 | 0.00 | 0.00 | 36 | 1004.0 |
| 20260505212119 | 82 | 265 | 0.9 | 0.9 | 0.00 | 0.00 | 0.00 | 35 | 1004.2 |
| 20260505211615 | 83 | 229 | 1.7 | 1.7 | 0.00 | 0.00 | 0.00 | 35 | 1004.1 |
| 20260505211112 | 84 | 333 | 2.6 | 6.1 | 0.00 | 0.00 | 0.00 | 35 | 1003.8 |
| 20260505210609 | 84 | 212 | 1.7 | 1.7 | 0.00 | 0.00 | 0.00 | 34 | 1003.9 |
| 20260505210106 | 84 | 189 | 2.6 | 4.3 | 0.00 | 0.00 | 0.00 | 35 | 1003.6 |
| 20260505205603 | 83 | 293 | 0.9 | 0.9 | 0.00 | 0.00 | 0.00 | 36 | 1003.9 |
| 20260505205101 | 84 | 328 | 1.7 | 2.6 | 0.00 | 0.00 | 0.00 | 35 | 1003.7 |
| 20260505204558 | 84 | 251 | 0.9 | 0.9 | 0.00 | 0.00 | 0.00 | 35 | 1003.9 |
| 20260505204056 | 84 | 190 | 3.5 | 9.6 | 0.00 | 0.00 | 0.00 | 36 | 1003.7 |
| 20260505203552 | 84 | 337 | 0.0 | 0.0 | 0.00 | 0.00 | 0.00 | 36 | 1003.8 |
| 20260505203049 | 84 | 148 | 1.7 | 4.3 | 0.00 | 0.00 | 0.00 | 36 | 1003.9 |
| 20260505202545 | 83 | 229 | 2.6 | 4.3 | 0.00 | 0.00 | 0.00 | 37 | 1003.9 |
| 20260505202041 | 83 | 228 | 1.7 | 1.7 | 0.00 | 0.00 | 0.00 | 38 | 1004.1 |
| 20260505201538 | 83 | 308 | 0.0 | 0.9 | 0.00 | 0.00 | 0.00 | 40 | 1004.0 |
| 20260505201036 | 82 | 204 | 2.6 | 5.2 | 0.00 | 0.00 | 0.00 | 38 | 1004.3 |
| 20260505200533 | 82 | 6 | 0.9 | 0.9 | 0.00 | 0.00 | 0.00 | 37 | 1004.1 |
| 20260505200030 | 82 | 215 | 1.7 | 1.7 | 0.00 | 0.00 | 0.00 | 37 | 1004.4 |
| 20260505195526 | 83 | 259 | 0.9 | 1.7 | 0.00 | 0.00 | 0.00 | 35 | 1004.3 |
| 20260505195024 | 85 | 317 | 1.7 | 1.7 | 0.00 | 0.00 | 0.00 | 35 | 1004.5 |
| 20260505194521 | 86 | 218 | 2.6 | 5.2 | 0.00 | 0.00 | 0.00 | 35 | 1004.3 |
| 20260505194016 | 84 | 265 | 1.7 | 1.7 | 0.00 | 0.00 | 0.00 | 37 | 1004.7 |
| 20260505193514 | 85 | 258 | 1.7 | 2.6 | 0.00 | 0.00 | 0.00 | 36 | 1004.5 |
| 20260505193011 | 84 | 241 | 2.6 | 4.3 | 0.00 | 0.00 | 0.00 | 37 | 1004.4 |
| 20260505192509 | 84 | 246 | 2.6 | 4.3 | 0.00 | 0.00 | 0.00 | 36 | 1004.6 |
| 20260505192006 | 84 | 359 | 1.7 | 1.7 | 0.00 | 0.00 | 0.00 | 37 | 1004.6 |
| 20260505191505 | 83 | 242 | 0.9 | 1.7 | 0.00 | 0.00 | 0.00 | 37 | 1004.6 |
| 20260505191002 | 83 | 215 | 0.9 | 0.9 | 0.00 | 0.00 | 0.00 | 38 | 1004.8 |
| 20260505190456 | 83 | 254 | 0.9 | 1.7 | 0.00 | 0.00 | 0.00 | 39 | 1004.9 |
| 20260505185952 | 83 | 240 | 3.5 | 6.1 | 0.00 | 0.00 | 0.00 | 38 | 1004.7 |
| 20260505185450 | 82 | 244 | 1.7 | 2.6 | 0.00 | 0.00 | 0.00 | 39 | 1004.9 |
| 20260505184946 | 82 | 224 | 0.9 | 0.9 | 0.00 | 0.00 | 0.00 | 42 | 1005.2 |
| 20260505184443 | 82 | 238 | 2.6 | 4.3 | 0.00 | 0.00 | 0.00 | 42 | 1004.8 |
| 20260505183939 | 83 | 213 | 1.7 | 2.6 | 0.00 | 0.00 | 0.00 | 42 | 1005.3 |
| 20260505183436 | 83 | 305 | 1.7 | 2.6 | 0.00 | 0.00 | 0.00 | 45 | 1005.3 |
| 20260505182933 | 82 | 230 | 0.9 | 1.7 | 0.00 | 0.00 | 0.00 | 43 | 1005.4 |
| 20260505182430 | 82 | 199 | 2.6 | 5.2 | 0.00 | 0.00 | 0.00 | 43 | 1005.4 |
| 20260505181926 | 81 | 207 | 0.9 | 0.9 | 0.00 | 0.00 | 0.00 | 45 | 1005.5 |
| 20260505181424 | 81 | 204 | 2.6 | 2.6 | 0.00 | 0.00 | 0.00 | 43 | 1005.3 |
| 20260505180921 | 82 | 165 | 4.3 | 6.1 | 0.00 | 0.00 | 0.00 | 44 | 1005.2 |
| 20260505180417 | 80 | 229 | 3.5 | 5.2 | 0.00 | 0.00 | 0.00 | 43 | 1005.4 |
| 20260505175913 | 80 | 260 | 1.7 | 1.7 | 0.00 | 0.00 | 0.00 | 44 | 1005.8 |
| 20260505175404 | 81 | 240 | 0.9 | 0.9 | 0.00 | 0.00 | 0.00 | 45 | 1005.8 |
| 20260505174901 | 81 | 240 | 1.7 | 1.7 | 0.00 | 0.00 | 0.00 | 43 | 1005.7 |
| 20260505174358 | 81 | 214 | 0.9 | 1.7 | 0.00 | 0.00 | 0.00 | 43 | 1005.7 |
| 20260505173854 | 81 | 266 | 2.6 | 4.3 | 0.00 | 0.00 | 0.00 | 43 | 1005.6 |
| 20260505173351 | 81 | 226 | 0.9 | 0.9 | 0.00 | 0.00 | 0.00 | 43 | 1005.7 |
| 20260505172848 | 81 | 193 | 6.1 | 7.8 | 0.00 | 0.00 | 0.00 | 44 | 1005.7 |
| 20260505172346 | 80 | 214 | 2.6 | 2.6 | 0.00 | 0.00 | 0.00 | 44 | 1005.7 |
| 20260505171845 | 80 | 223 | 0.9 | 1.7 | 0.00 | 0.00 | 0.00 | 45 | 1005.7 |
| 20260505171342 | 80 | 256 | 0.9 | 1.7 | 0.00 | 0.00 | 0.00 | 47 | 1005.8 |
| 20260505170839 | 78 | 207 | 0.9 | 0.9 | 0.00 | 0.00 | 0.00 | 49 | 1005.8 |
| 20260505170336 | 79 | 25 | 0.9 | 0.9 | 0.00 | 0.00 | 0.00 | 50 | 1006.0 |
| 20260505165831 | 78 | 188 | 2.6 | 2.6 | 0.00 | 0.00 | 0.00 | 47 | 1006.2 |
| 20260505165327 | 78 | 210 | 1.7 | 1.7 | 0.00 | 0.00 | 0.00 | 50 | 1006.3 |
| 20260505164822 | 79 | 20 | 2.6 | 5.2 | 0.00 | 0.00 | 0.00 | 49 | 1006.3 |
| 20260505164319 | 79 | 340 | 2.6 | 4.3 | 0.00 | 0.00 | 0.00 | 51 | 1006.5 |
| 20260505163818 | 79 | 200 | 1.7 | 1.7 | 0.00 | 0.00 | 0.00 | 55 | 1006.6 |
| 20260505163316 | 79 | 151 | 0.9 | 1.7 | 0.00 | 0.00 | 0.00 | 54 | 1006.6 |
| 20260505162814 | 80 | 192 | 1.7 | 1.7 | 0.00 | 0.00 | 0.00 | 49 | 1007.0 |
| 20260505162310 | 79 | 332 | 2.6 | 2.6 | 0.00 | 0.00 | 0.00 | 50 | 1006.5 |
| 20260505161807 | 79 | 293 | 0.0 | 0.0 | 0.00 | 0.00 | 0.00 | 55 | 1006.9 |
| 20260505161305 | 79 | 249 | 0.9 | 0.9 | 0.00 | 0.00 | 0.00 | 51 | 1007.2 |
| 20260505160802 | 78 | 262 | 0.9 | 0.9 | 0.00 | 0.00 | 0.00 | 51 | 1007.1 |
| 20260505160300 | 78 | 226 | 1.7 | 2.6 | 0.00 | 0.00 | 0.00 | 51 | 1007.6 |
| 20260505153238 | 78 | 233 | 0.9 | 1.7 | 0.00 | 0.00 | 0.00 | 52 | 1007.5 |
| 20260505152735 | 77 | 352 | 0.9 | 0.9 | 0.00 | 0.00 | 0.00 | 53 | 1007.5 |
| 20260505152231 | 77 | 246 | 0.0 | 0.0 | 0.00 | 0.00 | 0.00 | 54 | 1007.6 |
| 20260505151726 | 77 | 272 | 0.0 | 0.0 | 0.00 | 0.00 | 0.00 | 52 | 1007.6 |
| 20260505151224 | 77 | 252 | 0.9 | 0.9 | 0.00 | 0.00 | 0.00 | 52 | 1007.8 |
| 20260505150720 | 76 | 305 | 0.9 | 1.7 | 0.00 | 0.00 | 0.00 | 54 | 1007.6 |
| 20260505150217 | 77 | 210 | 0.9 | 0.9 | 0.00 | 0.00 | 0.00 | 53 | 1007.9 |
| 20260505140645 | 75 | 211 | 0.9 | 0.9 | 0.00 | 0.00 | 0.00 | 54 | 1008.1 |
| 20260505140142 | 75 | 283 | 1.7 | 1.7 | 0.00 | 0.00 | 0.00 | 53 | 1008.3 |
| 20260505130106 | 67 | 329 | 0.0 | 0.9 | 0.00 | 0.00 | 0.00 | 71 | 1008.0 |
| 20260505124555 | 64 | 138 | 0.0 | 0.0 | 0.00 | 0.00 | 0.00 | 74 | 1007.7 |
| 20260505124051 | 62 | 277 | 0.0 | 0.0 | 0.00 | 0.00 | 0.00 | 80 | 1008.2 |
| 20260505123548 | 62 | 304 | 0.0 | 0.0 | 0.00 | 0.00 | 0.00 | 82 | 1008.2 |